EW3553 Weather Reports


Display with metric or nautical units.
time (UTC)temp
F
wind
direction
speed
MPH
gust
MPH
rain 1hr
in
rain 24hr
in
rain mn
in
humidity
%
barometer
mb
20260502123034 51 169 0.0 1.0 0.00 0.01 0.01 92 1012.0
20260502121535 51 169 1.0 4.0 0.00 0.01 0.01 93 1012.1
20260502114534 51 178 0.0 1.0 0.00 0.01 0.01 93 1012.2
20260502113033 50 178 0.0 0.0 0.01 0.01 0.01 92 1012.0
20260502111530 50 178 0.0 1.0 0.01 0.01 0.01 92 1011.7
20260502110032 50 177 0.0 0.0 0.01 0.01 0.01 91 1011.4
20260502104528 50 178 1.0 3.0 0.01 0.01 0.01 89 1011.4
20260502103054 50 178 0.0 0.0 0.00 0.00 0.00 88 1011.8
20260502101533 50 178 0.0 1.0 0.00 0.00 0.00 87 1011.6
20260502071518 51 176 0.0 2.0 0.00 0.00 0.00 83 1011.5
20260502070016 51 176 1.0 3.0 0.00 0.00 0.00 83 1011.7
20260502064513 51 166 0.0 5.0 0.00 0.00 0.00 83 1011.7
20260502063016 51 166 1.0 7.0 0.00 0.00 0.00 82 1011.8
20260502061511 51 190 0.0 3.0 0.00 0.00 0.00 81 1011.9
20260502060009 51 188 0.0 1.0 0.00 0.00 0.00 79 1012.1
20260502054511 51 188 0.0 2.0 0.00 0.00 0.00 79 1012.0
20260502053006 51 188 0.0 3.0 0.00 0.00 0.00 78 1011.7
20260502051505 52 188 0.0 4.0 0.00 0.00 0.00 76 1011.7
20260502050003 52 207 0.0 1.0 0.00 0.00 0.00 76 1011.9
20260502044502 52 207 0.0 1.0 0.00 0.00 0.00 75 1011.8
20260502043108 52 207 0.0 1.0 0.00 0.00 0.00 74 1011.9
20260502041558 52 207 1.0 7.0 0.00 0.00 0.00 73 1012.1
20260502040100 52 207 1.0 5.0 0.00 0.00 0.00 73 1012.0
20260502034553 51 140 0.0 2.0 0.00 0.00 0.00 76 1012.0
20260502033049 51 112 0.0 3.0 0.00 0.00 0.00 79 1011.8
20260502031544 51 111 0.0 6.0 0.00 0.00 0.00 81 1012.1
20260502030047 51 159 0.0 5.0 0.00 0.00 0.00 83 1012.2
20260502024536 51 149 1.0 8.0 0.00 0.00 0.00 83 1012.4
20260502023031 51 154 0.0 5.0 0.00 0.00 0.00 83 1012.3
20260502021526 51 156 1.0 8.0 0.00 0.00 0.00 82 1012.2
20260502020022 51 170 0.0 6.0 0.00 0.00 0.00 81 1012.1
20260502014517 51 167 2.0 8.0 0.00 0.00 0.00 81 1012.1
20260502013013 51 146 2.0 7.0 0.00 0.00 0.00 79 1012.1
20260502011509 52 161 2.0 11.0 0.00 0.00 0.00 77 1012.0
20260502010004 52 161 3.0 11.0 0.00 0.00 0.00 75 1011.8
20260502004600 52 180 2.0 7.0 0.00 0.00 0.00 74 1011.8
20260502003056 52 138 2.0 7.0 0.00 0.00 0.00 75 1011.7
20260502001551 52 235 2.0 7.0 0.00 0.00 0.00 75 1011.6
20260502000047 52 161 2.0 7.0 0.00 0.00 0.00 75 1011.4
20260501234544 52 159 3.0 10.0 0.00 0.00 0.00 75 1011.3
20260501233049 53 158 0.0 5.0 0.00 0.00 0.00 73 1011.3
20260501231535 53 159 3.0 8.0 0.00 0.00 0.00 72 1011.1
20260501230030 54 151 1.0 8.0 0.00 0.00 0.00 71 1011.0
20260501224526 54 170 1.0 5.0 0.00 0.01 0.00 70 1011.1
20260501223033 55 184 3.0 11.0 0.00 0.01 0.00 69 1011.1
20260501221517 55 133 3.0 9.0 0.00 0.01 0.00 68 1011.2
20260501220014 55 150 2.0 9.0 0.00 0.01 0.00 68 1011.1
20260501214526 55 155 4.0 7.0 0.00 0.01 0.00 65 1011.3
20260501213006 56 242 4.0 10.0 0.00 0.01 0.00 65 1011.0
20260501211504 56 184 5.0 12.0 0.00 0.01 0.00 61 1011.1
20260501210058 57 150 4.0 9.0 0.00 0.01 0.00 59 1011.1
20260501204604 58 146 5.0 14.0 0.00 0.01 0.00 56 1011.0
20260501203100 59 143 4.0 12.0 0.00 0.01 0.00 52 1011.0
20260501201545 60 165 3.0 10.0 0.00 0.01 0.00 51 1010.9
20260501200041 60 156 3.0 14.0 0.00 0.01 0.00 51 1010.9
20260501194542 62 147 4.0 10.0 0.00 0.01 0.00 50 1010.7
20260501193044 64 166 3.0 7.0 0.00 0.01 0.00 44 1010.8
20260501191531 64 164 2.0 7.0 0.00 0.01 0.00 43 1011.0
20260501190029 64 228 3.0 6.0 0.00 0.01 0.00 43 1011.1
20260501184522 64 224 2.0 7.0 0.00 0.01 0.00 41 1011.4
20260501183018 63 250 2.0 7.0 0.00 0.01 0.00 44 1011.5
20260501181513 63 236 5.0 9.0 0.00 0.01 0.00 42 1011.4
20260501180011 63 150 3.0 8.0 0.00 0.01 0.00 43 1011.4
20260501174504 62 334 2.0 6.0 0.00 0.01 0.00 45 1011.6
20260501173101 63 247 3.0 7.0 0.00 0.01 0.00 36 1011.8
20260501171606 62 313 2.0 6.0 0.00 0.01 0.00 38 1011.8
20260501170107 61 257 2.0 7.0 0.00 0.01 0.00 38 1012.0
20260501164553 62 240 2.0 7.0 0.00 0.01 0.00 37 1012.1
20260501163045 60 44 2.0 5.0 0.00 0.01 0.00 42 1012.2
20260501161541 60 261 2.0 6.0 0.00 0.01 0.00 40 1012.4
20260501160043 59 30 1.0 4.0 0.00 0.01 0.00 42 1012.6
20260501154532 58 355 3.0 14.0 0.00 0.01 0.00 43 1012.8
20260501153029 57 235 3.0 9.0 0.00 0.01 0.00 43 1012.9
20260501151524 57 53 3.0 8.0 0.00 0.01 0.00 44 1012.9
20260501150025 57 311 3.0 8.0 0.00 0.01 0.00 44 1012.9
20260501144519 56 339 3.0 8.0 0.00 0.01 0.00 46 1012.6
20260501143012 56 25 2.0 8.0 0.00 0.01 0.00 47 1012.7
20260501141510 56 306 1.0 8.0 0.00 0.01 0.00 51 1012.8